Time,TemperatureF,DewpointF,PressureIn,WindDirection,WindDirectionDegrees,WindSpeedMPH,WindSpeedGustMPH,Humidity,HourlyPrecipIn,Conditions,Clouds,dailyrainin,SoftwareType,DateUTC
2013-01-23 00:02:00,34.8,34.0,29.76,NNW,336,0.0,0.0,96,0.00,,,0.01,weatherlink.com 1.10,2013-01-23 00:02:00,
2013-01-23 00:17:00,34.9,34.0,29.76,NNW,336,0.0,0.0,96,0.00,,,0.01,weatherlink.com 1.10,2013-01-23 00:17:00,
2013-01-23 00:32:00,35.2,34.0,29.76,NNW,336,0.0,0.0,96,0.00,,,0.00,weatherlink.com 1.10,2013-01-23 00:32:00,
2013-01-23 00:47:00,35.4,34.0,29.76,NNW,336,0.0,0.0,95,0.00,,,0.00,weatherlink.com 1.10,2013-01-23 00:47:00,
2013-01-23 01:02:00,35.4,34.0,29.76,NNW,334,0.0,0.0,95,0.00,,,0.00,weatherlink.com 1.10,2013-01-23 01:02:00,
2013-01-23 01:17:00,35.5,34.0,29.76,NNW,334,0.0,0.0,95,0.00,,,0.00,weatherlink.com 1.10,2013-01-23 01:17:00,
2013-01-23 01:47:00,35.5,34.0,29.76,SSE,156,0.0,0.0,95,0.00,,,0.00,weatherlink.com 1.10,2013-01-23 01:47:00,
2013-01-23 02:02:00,35.2,34.0,29.76,SSE,156,0.0,0.0,95,0.00,,,0.00,weatherlink.com 1.10,2013-01-23 02:02:00,
2013-01-23 02:17:00,35.1,34.0,29.76,SSE,156,0.0,1.0,95,0.00,,,0.00,weatherlink.com 1.10,2013-01-23 02:17:00,
2013-01-23 02:32:00,34.9,34.0,29.76,WSW,243,0.0,0.0,95,0.00,,,0.00,weatherlink.com 1.10,2013-01-23 02:32:00,
2013-01-23 02:47:00,34.6,33.0,29.76,West,263,0.0,0.0,95,0.00,,,0.00,weatherlink.com 1.10,2013-01-23 02:47:00,
2013-01-23 03:02:00,34.3,33.0,29.76,West,263,0.0,0.0,95,0.00,,,0.00,weatherlink.com 1.10,2013-01-23 03:02:00,
2013-01-23 03:17:00,33.9,33.0,29.76,West,263,0.0,0.0,95,0.00,,,0.00,weatherlink.com 1.10,2013-01-23 03:17:00,
2013-01-23 03:32:00,34.0,33.0,29.76,West,262,0.0,0.0,95,0.00,,,0.00,weatherlink.com 1.10,2013-01-23 03:32:00,
2013-01-23 03:47:00,34.3,33.0,29.75,NNE,22,0.0,0.0,95,0.00,,,0.00,weatherlink.com 1.10,2013-01-23 03:47:00,
2013-01-23 04:02:00,34.5,33.0,29.75,NE,50,0.0,0.0,95,0.00,,,0.00,weatherlink.com 1.10,2013-01-23 04:02:00,
2013-01-23 04:17:00,34.4,33.0,29.76,NE,50,0.0,0.0,95,0.00,,,0.00,weatherlink.com 1.10,2013-01-23 04:17:00,
2013-01-23 04:32:00,34.8,34.0,29.76,South,173,0.0,0.0,95,0.00,,,0.00,weatherlink.com 1.10,2013-01-23 04:32:00,
2013-01-23 04:47:00,34.8,34.0,29.76,SSE,158,0.0,0.0,95,0.00,,,0.00,weatherlink.com 1.10,2013-01-23 04:47:00,
2013-01-23 05:02:00,34.1,33.0,29.76,SSE,158,0.0,0.0,95,0.00,,,0.00,weatherlink.com 1.10,2013-01-23 05:02:00,
2013-01-23 05:17:00,33.5,32.0,29.76,SSE,158,0.0,0.0,95,0.00,,,0.00,weatherlink.com 1.10,2013-01-23 05:17:00,
2013-01-23 05:33:00,33.0,32.0,29.77,SSW,194,0.0,0.0,95,0.00,,,0.00,weatherlink.com 1.10,2013-01-23 05:33:00,
2013-01-23 05:48:00,33.7,33.0,29.76,SE,143,0.0,2.0,96,0.00,,,0.00,weatherlink.com 1.10,2013-01-23 05:48:00,
2013-01-23 06:03:00,34.2,33.0,29.76,SSE,158,0.0,0.0,96,0.00,,,0.00,weatherlink.com 1.10,2013-01-23 06:03:00,
2013-01-23 06:18:00,34.5,34.0,29.76,SSE,158,0.0,0.0,96,0.00,,,0.00,weatherlink.com 1.10,2013-01-23 06:18:00,
2013-01-23 06:33:00,34.5,33.0,29.76,SSE,158,0.0,0.0,95,0.00,,,0.00,weatherlink.com 1.10,2013-01-23 06:33:00,
2013-01-23 06:48:00,34.9,34.0,29.77,SSE,158,0.0,0.0,95,0.00,,,0.00,weatherlink.com 1.10,2013-01-23 06:48:00,
2013-01-23 07:03:00,35.2,34.0,29.77,SSE,167,0.0,0.0,95,0.00,,,0.00,weatherlink.com 1.10,2013-01-23 07:03:00,
2013-01-23 07:18:00,36.0,35.0,29.77,SSE,167,1.0,4.0,95,0.00,,,0.00,weatherlink.com 1.10,2013-01-23 07:18:00,
2013-01-23 07:33:00,36.7,35.0,29.77,SSE,165,2.0,3.0,93,0.00,,,0.00,weatherlink.com 1.10,2013-01-23 07:33:00,
2013-01-23 07:48:00,37.2,35.0,29.77,SE,138,0.0,4.0,91,0.00,,,0.00,weatherlink.com 1.10,2013-01-23 07:48:00,
2013-01-23 08:03:00,37.5,35.0,29.77,SSE,165,0.0,3.0,89,0.00,,,0.00,weatherlink.com 1.10,2013-01-23 08:03:00,
2013-01-23 08:18:00,37.5,34.0,29.77,East,98,0.0,3.0,88,0.00,,,0.00,weatherlink.com 1.10,2013-01-23 08:18:00,
2013-01-23 08:33:00,37.4,34.0,29.77,East,98,0.0,0.0,88,0.00,,,0.00,weatherlink.com 1.10,2013-01-23 08:33:00,
2013-01-23 08:48:00,37.3,34.0,29.76,SW,221,0.0,1.0,88,0.00,,,0.00,weatherlink.com 1.10,2013-01-23 08:48:00,
2013-01-23 09:03:00,37.2,34.0,29.75,SW,221,0.0,0.0,88,0.00,,,0.00,weatherlink.com 1.10,2013-01-23 09:03:00,
2013-01-23 09:18:00,37.4,34.0,29.75,WSW,252,0.0,2.0,88,0.00,,,0.00,weatherlink.com 1.10,2013-01-23 09:18:00,
2013-01-23 09:33:00,38.4,35.0,29.75,East,96,1.0,7.0,88,0.00,,,0.00,weatherlink.com 1.10,2013-01-23 09:33:00,
2013-01-23 09:48:00,39.0,35.0,29.74,ESE,112,2.0,7.0,86,0.00,,,0.00,weatherlink.com 1.10,2013-01-23 09:48:00,
2013-01-23 10:03:00,39.1,35.0,29.74,NE,44,0.0,10.0,85,0.00,,,0.00,weatherlink.com 1.10,2013-01-23 10:03:00,
2013-01-23 10:18:00,39.3,35.0,29.74,ENE,65,4.0,7.0,84,0.00,,,0.00,weatherlink.com 1.10,2013-01-23 10:18:00,
2013-01-23 10:33:00,39.5,35.0,29.74,ENE,74,5.0,9.0,84,0.00,,,0.00,weatherlink.com 1.10,2013-01-23 10:33:00,
2013-01-23 10:48:00,39.6,35.0,29.74,NE,56,2.0,9.0,83,0.00,,,0.00,weatherlink.com 1.10,2013-01-23 10:48:00,
2013-01-23 11:03:00,39.5,35.0,29.74,ENE,76,5.0,8.0,83,0.00,,,0.00,weatherlink.com 1.10,2013-01-23 11:03:00,
2013-01-23 11:18:00,39.6,35.0,29.73,ENE,78,4.0,10.0,83,0.00,,,0.00,weatherlink.com 1.10,2013-01-23 11:18:00,
2013-01-23 11:33:00,39.8,35.0,29.73,ESE,118,4.0,10.0,83,0.00,,,0.00,weatherlink.com 1.10,2013-01-23 11:33:00,
2013-01-23 11:48:00,39.9,35.0,29.73,ENE,65,8.0,10.0,82,0.00,,,0.00,weatherlink.com 1.10,2013-01-23 11:48:00,
2013-01-23 12:03:00,40.0,35.0,29.73,ENE,66,6.0,9.0,81,0.00,,,0.00,weatherlink.com 1.10,2013-01-23 12:03:00,
2013-01-23 12:19:00,40.1,35.0,29.73,ENE,60,3.0,9.0,81,0.00,,,0.00,weatherlink.com 1.10,2013-01-23 12:19:00,
2013-01-23 12:34:00,40.1,34.0,29.73,SSW,195,3.0,7.0,80,0.00,,,0.00,weatherlink.com 1.10,2013-01-23 12:34:00,
2013-01-23 12:49:00,40.0,34.0,29.73,NW,311,5.0,8.0,79,0.00,,,0.00,weatherlink.com 1.10,2013-01-23 12:49:00,
2013-01-23 13:04:00,39.9,34.0,29.73,NE,56,3.0,6.0,79,0.00,,,0.00,weatherlink.com 1.10,2013-01-23 13:04:00,
2013-01-23 13:19:00,39.9,34.0,29.73,East,86,3.0,6.0,78,0.00,,,0.00,weatherlink.com 1.10,2013-01-23 13:19:00,
2013-01-23 13:34:00,39.7,34.0,29.73,SW,214,2.0,6.0,79,0.00,,,0.00,weatherlink.com 1.10,2013-01-23 13:34:00,
2013-01-23 13:49:00,39.7,34.0,29.73,ENE,71,2.0,6.0,80,0.00,,,0.00,weatherlink.com 1.10,2013-01-23 13:49:00,
2013-01-23 14:04:00,39.6,34.0,29.73,NE,41,2.0,6.0,79,0.00,,,0.00,weatherlink.com 1.10,2013-01-23 14:04:00,
2013-01-23 14:19:00,39.8,33.0,29.72,East,99,5.0,8.0,78,0.00,,,0.00,weatherlink.com 1.10,2013-01-23 14:19:00,
2013-01-23 14:34:00,40.0,34.0,29.72,SSW,212,0.0,5.0,80,0.00,,,0.00,weatherlink.com 1.10,2013-01-23 14:34:00,
2013-01-23 14:49:00,39.9,34.0,29.72,South,181,3.0,7.0,78,0.00,,,0.00,weatherlink.com 1.10,2013-01-23 14:49:00,
2013-01-23 15:04:00,39.9,34.0,29.73,NE,40,5.0,6.0,79,0.00,,,0.00,weatherlink.com 1.10,2013-01-23 15:04:00,
2013-01-23 15:19:00,39.8,34.0,29.73,ENE,72,4.0,4.0,79,0.00,,,0.00,weatherlink.com 1.10,2013-01-23 15:19:00,
2013-01-23 15:34:00,39.8,34.0,29.72,East,86,3.0,5.0,79,0.00,,,0.00,weatherlink.com 1.10,2013-01-23 15:34:00,
2013-01-23 15:49:00,39.8,34.0,29.73,ENE,72,3.0,5.0,79,0.00,,,0.00,weatherlink.com 1.10,2013-01-23 15:49:00,
2013-01-23 16:04:00,39.9,34.0,29.72,ENE,78,1.0,5.0,78,0.00,,,0.00,weatherlink.com 1.10,2013-01-23 16:04:00,
2013-01-23 16:19:00,39.7,33.0,29.72,East,93,6.0,8.0,78,0.00,,,0.00,weatherlink.com 1.10,2013-01-23 16:19:00,
2013-01-23 16:34:00,39.5,34.0,29.72,ENE,73,1.0,3.0,80,0.00,,,0.00,weatherlink.com 1.10,2013-01-23 16:34:00,
2013-01-23 16:49:00,39.3,34.0,29.73,NNE,23,1.0,5.0,81,0.00,,,0.00,weatherlink.com 1.10,2013-01-23 16:49:00,
2013-01-23 17:04:00,39.2,34.0,29.73,ENE,77,2.0,4.0,81,0.00,,,0.00,weatherlink.com 1.10,2013-01-23 17:04:00,
2013-01-23 17:19:00,39.4,34.0,29.74,ENE,77,5.0,6.0,80,0.00,,,0.00,weatherlink.com 1.10,2013-01-23 17:19:00,
2013-01-23 17:34:00,39.5,34.0,29.74,ENE,70,2.0,3.0,81,0.00,,,0.00,weatherlink.com 1.10,2013-01-23 17:34:00,
2013-01-23 17:49:00,39.2,34.0,29.75,East,86,3.0,5.0,82,0.00,,,0.00,weatherlink.com 1.10,2013-01-23 17:49:00,
2013-01-23 18:04:00,39.3,34.0,29.75,East,79,2.0,5.0,80,0.00,,,0.00,weatherlink.com 1.10,2013-01-23 18:04:00,
2013-01-23 18:19:00,39.5,34.0,29.75,ENE,75,5.0,6.0,80,0.00,,,0.00,weatherlink.com 1.10,2013-01-23 18:19:00,
2013-01-23 18:34:00,39.6,33.0,29.75,East,81,0.0,4.0,78,0.00,,,0.00,weatherlink.com 1.10,2013-01-23 18:34:00,
2013-01-23 18:49:00,39.7,33.0,29.76,ENE,72,1.0,3.0,77,0.00,,,0.00,weatherlink.com 1.10,2013-01-23 18:49:00,
2013-01-23 19:04:00,39.7,33.0,29.76,East,83,2.0,3.0,77,0.00,,,0.00,weatherlink.com 1.10,2013-01-23 19:04:00,
2013-01-23 19:19:00,39.6,33.0,29.77,ENE,64,3.0,4.0,77,0.00,,,0.00,weatherlink.com 1.10,2013-01-23 19:19:00,
2013-01-23 19:34:00,39.4,34.0,29.77,ENE,78,3.0,6.0,80,0.00,,,0.00,weatherlink.com 1.10,2013-01-23 19:34:00,
2013-01-23 19:49:00,39.2,34.0,29.78,ENE,62,2.0,6.0,82,0.00,,,0.00,weatherlink.com 1.10,2013-01-23 19:49:00,
2013-01-23 20:04:00,38.9,34.0,29.78,NE,55,3.0,5.0,82,0.00,,,0.00,weatherlink.com 1.10,2013-01-23 20:04:00,
2013-01-23 20:19:00,38.9,33.0,29.79,ENE,74,1.0,4.0,80,0.00,,,0.00,weatherlink.com 1.10,2013-01-23 20:19:00,
2013-01-23 20:34:00,38.9,33.0,29.80,ENE,66,1.0,3.0,79,0.00,,,0.00,weatherlink.com 1.10,2013-01-23 20:34:00,
2013-01-23 20:49:00,39.0,33.0,29.81,NNE,19,1.0,2.0,79,0.00,,,0.00,weatherlink.com 1.10,2013-01-23 20:49:00,
2013-01-23 21:04:00,39.0,33.0,29.81,NNE,16,0.0,2.0,79,0.00,,,0.00,weatherlink.com 1.10,2013-01-23 21:04:00,
2013-01-23 21:19:00,39.0,33.0,29.81,ENE,70,1.0,3.0,80,0.00,,,0.00,weatherlink.com 1.10,2013-01-23 21:19:00,
2013-01-23 21:34:00,39.0,34.0,29.82,East,91,3.0,3.0,81,0.00,,,0.00,weatherlink.com 1.10,2013-01-23 21:34:00,
2013-01-23 21:49:00,38.8,33.0,29.82,ENE,71,2.0,3.0,81,0.00,,,0.00,weatherlink.com 1.10,2013-01-23 21:49:00,
2013-01-23 22:04:00,38.5,33.0,29.83,ENE,68,0.0,2.0,81,0.00,,,0.00,weatherlink.com 1.10,2013-01-23 22:04:00,
2013-01-23 22:19:00,38.3,33.0,29.83,ENE,68,0.0,1.0,82,0.00,,,0.00,weatherlink.com 1.10,2013-01-23 22:19:00,
2013-01-23 22:34:00,38.3,34.0,29.83,ENE,60,1.0,2.0,83,0.00,,,0.00,weatherlink.com 1.10,2013-01-23 22:34:00,
2013-01-23 22:49:00,38.5,34.0,29.84,NNE,26,1.0,2.0,83,0.00,,,0.00,weatherlink.com 1.10,2013-01-23 22:49:00,
2013-01-23 23:04:00,38.7,34.0,29.84,ENE,77,2.0,3.0,82,0.00,,,0.00,weatherlink.com 1.10,2013-01-23 23:04:00,
2013-01-23 23:19:00,38.7,33.0,29.85,ENE,70,1.0,3.0,81,0.00,,,0.00,weatherlink.com 1.10,2013-01-23 23:19:00,
2013-01-23 23:34:00,38.6,33.0,29.86,NNE,20,0.0,1.0,81,0.00,,,0.00,weatherlink.com 1.10,2013-01-23 23:34:00,
2013-01-23 23:49:00,38.5,33.0,29.86,NE,51,0.0,1.0,81,0.00,,,0.00,weatherlink.com 1.10,2013-01-23 23:49:00,